KC5CAM-13 Weather Reports


time (UTC)temp
C
wind
direction
speed
KPH
gust
KPH
rain 1hr
cm
rain 24hr
cm
rain mn
cm
humidity
%
barometer
mb
20260506112540 11 310 1.6 1.6 0.00 0.00 0.00 83 1013.5
20260506112037 11 348 6.4 9.7 0.00 0.00 0.00 82 1013.4
20260506111535 11 28 3.2 4.8 0.00 0.00 0.00 81 1013.7
20260506111032 12 335 1.6 1.6 0.00 0.00 0.00 80 1013.5
20260506110530 12 349 3.2 3.2 0.00 0.00 0.00 79 1013.3
20260506110027 12 14 3.2 4.8 0.00 0.00 0.00 78 1013.3
20260506105523 12 344 1.6 1.6 0.00 0.00 0.00 78 1013.2
20260506105020 12 333 1.6 1.6 0.00 0.00 0.00 78 1012.9
20260506104518 12 319 1.6 1.6 0.00 0.00 0.00 77 1013.0
20260506104016 12 315 1.6 3.2 0.00 0.00 0.00 77 1013.0
20260506103513 12 341 3.2 4.8 0.00 0.00 0.00 77 1012.8
20260506103009 12 341 3.2 3.2 0.00 0.00 0.00 77 1012.8
20260506102508 12 315 0.0 1.6 0.00 0.00 0.00 76 1012.7
20260506102005 12 357 3.2 3.2 0.00 0.00 0.00 76 1012.7
20260506101501 12 308 1.6 3.2 0.00 0.00 0.00 76 1012.7
20260506100959 13 327 1.6 1.6 0.00 0.00 0.00 76 1012.5
20260506100457 13 319 0.0 1.6 0.00 0.00 0.00 77 1012.8
20260506095954 13 334 1.6 1.6 0.00 0.00 0.00 76 1012.2
20260506095453 13 318 3.2 4.8 0.00 0.00 0.00 77 1012.2
20260506094948 13 326 0.0 0.0 0.00 0.00 0.00 77 1012.3
20260506094447 13 311 3.2 4.8 0.00 0.00 0.00 77 1012.2
20260506093944 13 15 3.2 8.0 0.00 0.00 0.00 76 1012.3
20260506093443 13 346 3.2 3.2 0.00 0.00 0.00 77 1012.1
20260506092940 13 341 1.6 1.6 0.00 0.00 0.00 76 1011.9
20260506092437 13 358 1.6 3.2 0.00 0.00 0.00 77 1011.7
20260506091934 13 333 1.6 3.2 0.00 0.00 0.00 76 1011.8
20260506091432 13 320 4.8 8.0 0.00 0.00 0.00 76 1011.7
20260506090929 13 359 0.0 1.6 0.00 0.00 0.00 76 1011.7
20260506090427 13 1 0.0 0.0 0.00 0.00 0.00 77 1011.8
20260506085923 13 334 4.8 4.8 0.00 0.00 0.00 76 1011.8
20260506085420 13 327 1.6 3.2 0.00 0.00 0.00 77 1011.7
20260506084916 13 349 1.6 1.6 0.00 0.00 0.00 77 1011.5
20260506084414 13 321 0.0 1.6 0.00 0.00 0.00 77 1011.6
20260506083909 13 354 0.0 1.6 0.00 0.00 0.00 77 1011.3
20260506083407 13 342 1.6 3.2 0.00 0.00 0.00 77 1011.4
20260506082904 13 329 0.0 0.0 0.00 0.00 0.00 77 1011.4
20260506082401 13 327 0.0 1.6 0.00 0.00 0.00 77 1011.3
20260506081857 13 359 1.6 3.2 0.00 0.00 0.00 77 1011.3
20260506081355 13 313 3.2 3.2 0.00 0.00 0.00 77 1011.6
20260506080852 13 329 0.0 1.6 0.00 0.00 0.00 77 1011.5
20260506080349 13 20 1.6 3.2 0.00 0.00 0.00 77 1011.5
20260506073333 14 303 1.6 1.6 0.00 0.00 0.00 78 1010.9
20260506072830 14 339 1.6 3.2 0.00 0.00 0.00 79 1010.7
20260506072327 13 319 1.6 1.6 0.00 0.00 0.00 79 1010.7
20260506071825 13 337 3.2 3.2 0.00 0.00 0.00 78 1010.6
20260506071323 14 334 1.6 1.6 0.00 0.00 0.00 78 1010.6
20260506070820 14 354 3.2 4.8 0.00 0.00 0.00 78 1010.6
20260506070317 14 330 1.6 3.2 0.00 0.00 0.00 78 1010.7
20260506062254 14 352 1.6 3.2 0.00 0.00 0.00 78 1010.7
20260506061749 15 359 3.2 4.8 0.00 0.00 0.00 78 1011.3
20260506061247 15 354 1.6 1.6 0.00 0.00 0.00 79 1011.2
20260506060745 15 337 1.6 1.6 0.00 0.00 0.00 79 1010.9
20260506060243 15 346 1.6 1.6 0.00 0.00 0.00 79 1011.1
20260506051214 15 308 1.6 1.6 0.00 0.00 0.00 79 1011.2
20260506050713 15 338 3.2 3.2 0.00 0.00 0.00 79 1011.3
20260506050209 15 0 1.6 3.2 0.00 0.00 0.00 79 1011.2
20260506044700 15 328 0.0 1.6 0.00 0.00 0.00 81 1011.2
20260506044157 15 344 3.2 3.2 0.00 0.00 0.00 81 1011.2
20260506043654 15 339 3.2 3.2 0.00 0.00 0.00 81 1011.1
20260506043152 15 335 1.6 1.6 0.00 0.00 0.00 81 1011.3
20260506042651 15 349 1.6 3.2 0.00 0.00 0.00 81 1011.2
20260506042149 15 298 3.2 3.2 0.00 0.00 0.00 81 1011.0
20260506041647 16 327 1.6 1.6 0.00 0.00 0.00 80 1010.9
20260506041143 16 330 4.8 4.8 0.00 0.00 0.00 81 1011.1
20260506040641 16 293 1.6 3.2 0.00 0.00 0.00 80 1011.0
20260506040138 16 317 1.6 3.2 0.00 0.00 0.00 80 1011.0
20260506035635 16 323 1.6 1.6 0.00 0.00 0.00 80 1010.7
20260506035131 16 336 8.0 16.1 0.00 0.00 0.00 80 1010.6
20260506034629 16 358 1.6 1.6 0.00 0.00 0.00 80 1010.4
20260506034125 16 330 4.8 4.8 0.00 0.00 0.00 80 1010.5
20260506033623 16 14 4.8 4.8 0.00 0.00 0.00 80 1010.5
20260506033120 16 353 3.2 3.2 0.00 0.00 0.00 80 1010.2
20260506032617 16 344 0.0 1.6 0.00 0.00 0.00 80 1010.4
20260506032114 17 302 1.6 1.6 0.00 0.00 0.00 80 1010.2
20260506031611 17 305 3.2 4.8 0.00 0.00 0.00 80 1010.3
20260506031108 17 282 1.6 1.6 0.00 0.00 0.00 80 1010.0
20260506030606 17 4 3.2 4.8 0.00 0.00 0.00 79 1010.1
20260506030103 17 0 1.6 1.6 0.00 0.00 0.00 79 1010.1
20260506025600 17 290 6.4 11.3 0.00 0.00 0.00 79 1009.9
20260506025056 17 294 1.6 1.6 0.00 0.00 0.00 79 1009.7
20260506024553 17 346 3.2 3.2 0.00 0.00 0.00 79 1009.7
20260506024050 17 236 1.6 3.2 0.00 0.00 0.00 79 1009.8
20260506023545 18 304 1.6 3.2 0.00 0.00 0.00 79 1009.4
20260506023043 18 349 3.2 3.2 0.00 0.00 0.00 79 1009.3
20260506022541 18 19 1.6 1.6 0.00 0.00 0.00 79 1009.3
20260506022038 18 309 3.2 3.2 0.00 0.00 0.00 79 1009.2
20260506021535 18 352 3.2 3.2 0.00 0.00 0.00 78 1008.8
20260506021033 18 337 0.0 1.6 0.00 0.00 0.00 78 1008.6
20260506020530 18 243 1.6 1.6 0.00 0.00 0.00 78 1008.6
20260506020027 18 351 0.0 1.6 0.00 0.00 0.00 78 1008.4
20260506015525 19 71 3.2 4.8 0.00 0.00 0.00 78 1008.4
20260506015021 19 339 1.6 3.2 0.00 0.00 0.00 78 1008.4
20260506014519 19 301 0.0 1.6 0.00 0.00 0.00 77 1008.3
20260506014015 20 318 1.6 1.6 0.00 0.00 0.00 77 1008.2
20260506013513 20 22 3.2 4.8 0.00 0.00 0.00 76 1007.9
20260506013009 20 346 0.0 1.6 0.00 0.00 0.00 76 1007.8
20260506012505 20 334 0.0 0.0 0.00 0.00 0.00 75 1007.7
20260506012003 20 8 1.6 1.6 0.00 0.00 0.00 75 1007.5
20260506011500 20 322 1.6 1.6 0.00 0.00 0.00 74 1007.7
20260506010956 20 17 1.6 1.6 0.00 0.00 0.00 74 1007.8
20260506010456 20 359 0.0 0.0 0.00 0.00 0.00 74 1007.2
20260506005951 20 357 1.6 1.6 0.00 0.00 0.00 73 1006.8
20260506005449 20 9 0.0 0.0 0.00 0.00 0.00 73 1007.0
20260506004944 20 295 1.6 1.6 0.00 0.00 0.00 73 1007.0
20260506004442 20 298 3.2 3.2 0.00 0.00 0.00 73 1007.0
20260506003938 20 337 0.0 1.6 0.00 0.00 0.00 73 1006.9
20260506003435 21 344 1.6 1.6 0.00 0.00 0.00 72 1006.5
20260506002931 21 1 1.6 1.6 0.00 0.00 0.00 72 1006.9
20260506002427 21 322 3.2 3.2 0.00 0.00 0.00 72 1006.5
20260506001923 21 346 3.2 4.8 0.00 0.00 0.00 71 1006.4
20260506001420 21 354 1.6 1.6 0.00 0.00 0.00 71 1006.4
20260506000917 22 344 3.2 3.2 0.00 0.00 0.00 70 1006.6
20260506000416 22 23 3.2 4.8 0.00 0.00 0.00 70 1006.8
20260505235911 22 327 3.2 4.8 0.00 0.00 0.00 70 1006.5
20260505235410 22 9 3.2 3.2 0.00 0.00 0.00 70 1006.4
20260505234906 22 343 0.0 1.6 0.00 0.00 0.00 69 1006.3
20260505234404 23 331 3.2 3.2 0.00 0.00 0.00 69 1006.5
20260505233900 23 341 4.8 8.0 0.00 0.00 0.00 68 1006.6
20260505233358 23 312 6.4 8.0 0.00 0.00 0.00 67 1006.6
20260505232855 23 325 3.2 3.2 0.00 0.00 0.00 69 1006.5
20260505232353 23 334 1.6 1.6 0.00 0.00 0.00 68 1006.3
20260505231849 24 311 6.4 9.7 0.00 0.00 0.00 67 1006.1
20260505231347 24 36 3.2 3.2 0.00 0.00 0.00 67 1006.2
20260505230845 25 329 4.8 8.0 0.00 0.00 0.00 67 1006.1
20260505230342 25 13 1.6 1.6 0.00 0.00 0.00 66 1006.0
20260505225839 25 328 1.6 1.6 0.00 0.00 0.00 66 1006.3
20260505225336 26 43 6.4 9.7 0.00 0.00 0.00 64 1006.2
20260505224831 26 346 8.0 9.7 0.00 0.00 0.00 65 1005.8
20260505224329 26 315 3.2 4.8 0.00 0.00 0.00 65 1005.9
20260505223826 27 339 1.6 1.6 0.00 0.00 0.00 64 1005.5
20260505223323 27 334 1.6 1.6 0.00 0.00 0.00 63 1005.2
20260505222818 27 330 1.6 1.6 0.00 0.00 0.00 62 1005.5
20260505222315 28 280 8.0 12.9 0.00 0.00 0.00 60 1005.3
20260505221813 28 332 1.6 1.6 0.00 0.00 0.00 61 1005.0
20260505221309 28 351 0.0 0.0 0.00 0.00 0.00 60 1005.0
20260505220806 29 328 6.4 9.7 0.00 0.00 0.00 56 1005.2
20260505220303 30 81 0.0 1.6 0.00 0.00 0.00 54 1005.0
20260505215801 30 320 1.6 1.6 0.00 0.00 0.00 54 1004.9
20260505215259 30 333 1.6 1.6 0.00 0.00 0.00 56 1004.7
20260505214756 29 302 1.6 3.2 0.00 0.00 0.00 57 1004.9
20260505214253 29 341 3.2 4.8 0.00 0.00 0.00 55 1004.9
20260505213750 30 340 3.2 4.8 0.00 0.00 0.00 54 1005.0
20260505213248 31 317 1.6 1.6 0.00 0.00 0.00 51 1005.0
20260505212743 31 350 1.6 3.2 0.00 0.00 0.00 49 1004.8
20260505212241 31 280 3.2 4.8 0.00 0.00 0.00 47 1004.8
20260505211738 31 340 3.2 3.2 0.00 0.00 0.00 47 1005.0
20260505211235 31 321 1.6 1.6 0.00 0.00 0.00 46 1004.9
20260505210731 31 317 3.2 4.8 0.00 0.00 0.00 45 1005.0
20260505210228 31 317 3.2 3.2 0.00 0.00 0.00 45 1005.1
20260505205726 31 186 3.2 4.8 0.00 0.00 0.00 49 1005.0
20260505205224 31 320 1.6 1.6 0.00 0.00 0.00 51 1005.0
20260505204720 31 328 3.2 3.2 0.00 0.00 0.00 46 1005.2
20260505204218 32 329 0.0 1.6 0.00 0.00 0.00 48 1005.2
20260505203715 32 242 3.2 8.0 0.00 0.00 0.00 50 1005.0
20260505203212 32 18 1.6 1.6 0.00 0.00 0.00 50 1005.1
20260505202707 32 216 1.6 4.8 0.00 0.00 0.00 54 1005.0
20260505202204 31 1 1.6 3.2 0.00 0.00 0.00 54 1005.1
20260505201700 31 151 4.8 4.8 0.00 0.00 0.00 55 1005.0
20260505201158 30 141 1.6 3.2 0.00 0.00 0.00 61 1005.2
20260505200656 30 246 4.8 4.8 0.00 0.00 0.00 60 1005.4
20260505200153 30 198 3.2 4.8 0.00 0.00 0.00 59 1005.3
20260505195649 30 321 4.8 8.0 0.00 0.00 0.00 61 1005.3
20260505195146 31 143 1.6 3.2 0.00 0.00 0.00 60 1005.2
20260505194643 31 144 3.2 4.8 0.00 0.00 0.00 61 1005.2
20260505194139 30 216 3.2 3.2 0.00 0.00 0.00 62 1005.3
20260505193636 30 184 4.8 4.8 0.00 0.00 0.00 62 1005.3
20260505193133 30 251 1.6 1.6 0.00 0.00 0.00 64 1005.5
20260505192632 30 157 4.8 8.0 0.00 0.00 0.00 63 1005.4
20260505192129 30 316 1.6 1.6 0.00 0.00 0.00 65 1005.2
20260505191627 30 311 3.2 3.2 0.00 0.00 0.00 62 1005.3
20260505191125 30 155 6.4 9.7 0.00 0.00 0.00 65 1005.1
20260505190620 30 157 4.8 9.7 0.00 0.00 0.00 64 1005.3
20260505190115 29 35 8.0 11.3 0.00 0.00 0.00 65 1005.1
20260505185613 28 115 6.4 8.0 0.00 0.00 0.00 66 1005.0
20260505185109 28 138 8.0 11.3 0.00 0.00 0.00 66 1005.2
20260505184605 28 180 8.0 9.7 0.00 0.00 0.00 65 1005.1
20260505184102 28 184 11.3 12.9 0.00 0.00 0.00 66 1005.1
20260505183559 28 166 12.9 16.1 0.00 0.00 0.00 66 1005.3
20260505183057 29 212 4.8 8.0 0.00 0.00 0.00 64 1005.5
20260505182553 29 194 3.2 3.2 0.00 0.00 0.00 66 1005.4
20260505182050 29 188 4.8 4.8 0.00 0.00 0.00 66 1005.3
20260505181546 28 76 8.0 11.3 0.00 0.00 0.00 65 1005.2
20260505181044 28 298 6.4 8.0 0.00 0.00 0.00 66 1005.4
20260505180539 28 194 3.2 4.8 0.00 0.00 0.00 67 1005.4
20260505180038 28 157 6.4 14.5 0.00 0.00 0.00 66 1005.6
20260505175537 28 167 14.5 24.1 0.00 0.00 0.00 66 1005.3
20260505175035 28 197 8.0 12.9 0.00 0.00 0.00 66 1005.4
20260505174531 28 141 3.2 4.8 0.00 0.00 0.00 70 1005.4
20260505174027 28 257 8.0 11.3 0.00 0.00 0.00 70 1005.4
20260505173524 27 154 6.4 9.7 0.00 0.00 0.00 70 1005.5
20260505173021 27 161 3.2 3.2 0.00 0.00 0.00 71 1005.4
20260505172519 27 287 1.6 3.2 0.00 0.00 0.00 72 1005.5
20260505172015 26 314 4.8 8.0 0.00 0.00 0.00 72 1005.3
20260505171510 26 173 16.1 22.5 0.00 0.00 0.00 71 1005.4
20260505171008 26 128 3.2 4.8 0.00 0.00 0.00 73 1005.3
20260505170504 26 199 8.0 11.3 0.00 0.00 0.00 73 1005.3
20260505170000 26 167 11.3 14.5 0.00 0.00 0.00 75 1005.3
20260505165456 26 198 11.3 12.9 0.00 0.00 0.00 76 1005.2
20260505164951 25 169 6.4 8.0 0.00 0.00 0.00 76 1005.4
20260505164448 25 224 9.7 11.3 0.00 0.00 0.00 76 1005.4
20260505163946 25 199 8.0 16.1 0.00 0.00 0.00 76 1005.4
20260505163445 25 260 8.0 11.3 0.00 0.00 0.00 76 1005.4
20260505162944 25 198 3.2 3.2 0.00 0.00 0.00 76 1005.3
20260505162439 25 206 8.0 12.9 0.00 0.00 0.00 76 1005.3
20260505161936 25 190 8.0 9.7 0.00 0.00 0.00 77 1005.2
20260505161432 25 143 8.0 11.3 0.00 0.00 0.00 77 1005.1
20260505160930 25 168 8.0 11.3 0.00 0.00 0.00 77 1005.3
20260505160428 25 210 8.0 12.9 0.00 0.00 0.00 77 1005.1
20260505152905 25 113 8.0 11.3 0.00 0.00 0.00 77 1005.0
20260505152403 25 184 14.5 22.5 0.00 0.00 0.00 76 1005.1
20260505151901 24 164 12.9 17.7 0.00 0.00 0.00 78 1004.7
20260505151358 24 161 8.0 12.9 0.00 0.00 0.00 78 1004.9
20260505150856 23 145 9.7 11.3 0.00 0.00 0.00 79 1005.0
20260505150353 23 170 8.0 12.9 0.00 0.00 0.00 80 1005.2
20260505140322 23 140 6.4 9.7 0.00 0.00 0.00 83 1004.7
20260505130246 21 169 6.4 9.7 0.00 0.00 0.00 86 1004.6
20260505124736 21 127 14.5 17.7 0.00 0.00 0.00 86 1004.5
20260505124233 21 157 9.7 11.3 0.00 0.00 0.00 87 1004.4
20260505123729 21 294 6.4 11.3 0.00 0.00 0.00 87 1004.4
20260505123226 21 194 8.0 11.3 0.00 0.00 0.00 87 1004.1
20260505122722 21 144 8.0 12.9 0.00 0.00 0.00 87 1004.0
20260505122220 21 152 6.4 9.7 0.00 0.00 0.00 86 1004.0
20260505121716 21 164 11.3 17.7 0.00 0.00 0.00 87 1004.0
20260505121213 21 222 9.7 12.9 0.00 0.00 0.00 87 1003.8
20260505120709 21 105 4.8 8.0 0.00 0.00 0.00 87 1004.0
20260505120205 21 263 8.0 12.9 0.00 0.00 0.00 87 1003.9
20260505115659 21 210 9.7 12.9 0.00 0.00 0.00 87 1004.1
20260505115157 21 153 6.4 12.9 0.00 0.00 0.00 87 1004.0
20260505114654 21 161 9.7 14.5 0.00 0.00 0.00 87 1003.8
20260505114150 21 182 4.8 4.8 0.00 0.00 0.00 87 1004.0
20260505113646 21 142 4.8 8.0 0.00 0.00 0.00 87 1003.7
20260505113143 21 184 9.7 14.5 0.00 0.00 0.00 87 1003.8